Skip Page Navigation
NASA JPL Caltech
NASA Logo - Jet Propulsion Laboratory + View the NASA Portal
+ Near-Earth Object (NEO) Program
Search JPL
JPL Home Earth Solar System Stars & Galaxies Technology
JPL Solar System Dynamics
BODIES ORBITS EPHEMERIDES TOOLS PHYSICAL DATA DISCOVERY FAQ SITE MAP
JPL Small-Body Database Browser
Search: [ help ]  
217432 (2005 SF58)
Classification: Main-belt Asteroid          SPK-ID: 2217432
Ephemeris | Orbit Diagram | Orbital Elements | Physical Parameters | Discovery Circumstances | Close-Approach Data ]

[ hide orbit diagram ]
Orbit Diagram
Note: Make sure you have Java enabled on your browser to see the applet. This applet is provided as a 3D orbit visualization tool. The applet was implemented using 2-body methods, and hence should not be used for determining accurate long-term trajectories (over several years or decades) or planetary encounter circumstances. For accurate long-term ephemerides, please instead use our Horizons system.

Note: If the applet has stopped working because of a recent Java upgrade, here is a possible workaround.
Orbit Viewer

Additional Notes: the orbits shown in the applet are color coded. The planets are white lines, and the asteroid/comet is a blue line. The bright white line indicates the portion of the orbit that is above the ecliptic plane, and the darker portion is below the ecliptic plane. Likewise for the asteroid/comet orbit, the light blue indicates the portion above the ecliptic plane, and the dark blue the portion below the ecliptic plane.

Orbit Viewer applet originally written and kindly provided by Osamu Ajiki (AstroArts), and further modified by Ron Baalke (JPL).


Orbital Elements at Epoch 2457000.5 (2014-Dec-09.0) TDB
Reference: JPL 3 (heliocentric ecliptic J2000)
 Element Value Uncertainty (1-sigma)   Units 
e .1367486282950969 1.626e-07  
a 2.671706628680441 7.4287e-08 AU
q 2.306354412001473 4.6908e-07 AU
i 3.820024055175262 1.5395e-05 deg
node 197.7653787834892 0.00017372 deg
peri 184.7985314391606 0.00018267 deg
M 38.77504312103075 7.0727e-05 deg
tp 2456828.696753005646
(2014-Jun-20.19675301)
0.00030804 JED
period 1595.076728217017
4.37
6.6527e-05
1.821e-07
d
yr
n .2256944720160323 9.4131e-09 deg/d
Q 3.037058845359409 8.4445e-08 AU
  Orbit Determination Parameters
   # obs. used (total)      142  
   data-arc span      6152 days (16.84 yr)  
   first obs. used      1996-09-12  
   last obs. used      2013-07-17  
   planetary ephem.      DE431  
   SB-pert. ephem.      SB431-BIG16  
   condition code      0  
   fit RMS      .65274  
   data source      ORB  
   producer      Otto Matic  
   solution date      2014-Jun-11 21:41:27  

Additional Information
 Earth MOID = 1.30933 AU 
 T_jup = 3.364 
[ show covariance matrix ]

Ephemeris | Orbit Diagram | Orbital Elements | Physical Parameters | Discovery Circumstances | Close-Approach Data ]

Physical Parameter Table
Parameter Symbol Value Units Sigma Reference Notes
absolute magnitude H 16.8 mag n/a MPO266622  

217432 (2005 SF58)          Discovered 2005-Sep-26 by Calvin College at Calvin-Rehoboth (G98)
Reference: 20090806/Numbers.arcLast Updated: 2009-08-09

[ show close-approach data ]
Ephemeris | Orbit Diagram | Orbital Elements | Physical Parameters | Discovery Circumstances | Close-Approach Data ]
ABOUT SSD CREDITS/AWARDS PRIVACY/COPYRIGHT GLOSSARY LINKS
FirstGov 2014-Sep-02 18:52 UT
(server date/time)  
NASA Home Page
Site Manager:   Donald K. Yeomans
Webmaster  Alan B. Chamberlin